Regional Weather Roundup
Issued by NWS

Home | Current Version | Previous Version | Graphics & Text | Print | Product List | Glossary On
Versions: 1 2 3 4 5 6 7 8 9 10 11 12 13 14 15 16 17 18 19 20 21 22 23 24 25 26 27 28 29 30 31 32 33 34 35 36 37 38 39 40 41 42 43 44 45 46 47 48 49 50
000
ASUS45 KSLC 240810
RWRUT

UTAH REGIONAL WEATHER ROUNDUP
NATIONAL WEATHER SERVICE SALT LAKE CITY UT
100 AM MST TUE JAN 24 2017

UTZ001>011-023>025-240900-

NORTHERN UTAH

CITY           SKY/WX    TMP DP  RH WIND       PRES   REMARKS
BRIGHAM CITY     N/A     28  26  92 CALM      29.65S
HILL AFB       CLOUDY    28  22  79 SW5       29.63S WCI  23
LOGAN          LGT SNOW N/A N/A N/A S3        29.63R
OGDEN          CLOUDY    28  23  81 S7        29.63S WCI  21
SALT LAKE CITY MOCLDY    31  28  89 CALM      29.64S
TOOELE VALLEY  MOCLDY    30  27  86 N7        29.65S WCI  23
WENDOVER       PTCLDY    28  16  59 NW10      29.66R WCI  19
HEBER CITY     FLURRIES  23  21  93 CALM      29.58S
WEST JORDAN    CLOUDY    29  29 100 NE3       29.64F

$$

UTZ011>015-024>027-240900-

CENTRAL/NORTHEAST UTAH

CITY           SKY/WX    TMP DP  RH WIND       PRES   REMARKS
PROVO AIRPORT  FLURRIES  28  27  93 SW3       29.65R
MOAB/CANYONLAN MOCLDY    34  28  79 NW8       29.55F WCI  27
DELTA          CLOUDY    28  27  93 E3        29.65S
PRICE          CLOUDY    25  21  85 NW3       29.56S
RICHFIELD      MOCLDY    30  21  69 CALM      29.64S
ROOSEVELT      FOG       18  14  86 N3        29.58S VSB 1/2
VERNAL         CLOUDY    20  18  92 CALM      29.56R

$$

UTZ013>016-019>022-027-240900-

SOUTHERN UTAH

CITY           SKY/WX    TMP DP  RH WIND       PRES   REMARKS
BRYCE CANYON   CLOUDY    15  11  83 W7        29.57F WCI   5
CEDAR CITY     CLOUDY    22  19  89 CALM      29.61S
MILFORD        PTCLDY    24  14  65 W3        29.63S
ST GEORGE      CLOUDY    36  30  80 CALM      29.73S
HANKSVILLE     MOCLDY    32  27  80 MISG      29.60F
KANAB          CLOUDY    30  28  93 MISG      29.68F FOG
BLANDING       CLOUDY    29  29 100 S7        29.66F VSB 1/2 WCI  21

$$

REGIONAL REPORTS     COLORADO/ARIZONA

CITY           SKY/WX    TMP DP  RH WIND       PRES   REMARKS
CRAIG, CO      CLOUDY    28  17  63 SW7       29.52F WCI  21
GRAND JUNCTION CLOUDY    29  29 100 W5        29.57R WCI  24
RIFLE, CO      CLOUDY    26  23  88 CALM      29.56F
MONTROSE, CO   CLOUDY    31  22  69 E7        29.57F WCI  24
CORTEZ, CO     CLOUDY    25  24  96 CALM      29.62S
COLORADO CITY  LGT SNOW  32  32 100 CALM      29.68S
PAGE, AZ       FLURRIES  37  26  64 CALM      29.62S
GRAND CANYON   LGT SNOW  25  24  96 SW6       29.64S FOG     WCI  18
KINGMAN, AZ    MOCLDY    35  31  85 SW9       29.74S WCI  28
FLAGSTAFF, AZ  LGT SNOW  24  23  96 SW12      29.62F VSB 3/4 WCI  13

$$

REGIONAL REPORTS    NEVADA/IDAHO/WYOMING

CITY           SKY/WX    TMP DP  RH WIND       PRES   REMARKS
LAS VEGAS, NV  CLOUDY    42  33  70 SW14      29.72S
ELY, NY        MOCLDY    -5 -10  79 S7        29.68S WCI -19
ELKO, NV       CLOUDY    25  18  74 S9        29.71S WCI  15
POCATELLO, ID  LGT SNOW  25  23  92 SW17      29.62R FOG     WCI  12
BURLEY, ID     MIX PCPN  28  21  75 W16       29.62R WCI  16
FORT BRIDGER,  CLOUDY    21  20  98 W20       29.55S WCI   5
EVANSTON, WY   CLOUDY    19  16  88 SW13      29.54S WCI   6
ROCK SPRINGS,  LGT SNOW  21  17  84 W17       29.51S FOG     WCI   7

$$



USA.gov is the U.S. government's official web portal to all federal, state and local government web resources and services.